Location: Unspecified
(0.0000°N, 0.0000°E)
Time: 22:46:56
(UTC+01:00)

NATO 3D Rocket - Visible Passes

Search period start: 06 December 2016 00:00
Search period end: 16 December 2016 00:00
Orbit: 670 x 2296 km, 21.5° (Epoch: 05 December)

Date Brightness Start Highest point End Pass type
(mag) Time Alt. Az. Time Alt. Az. Time Alt. Az.
06 Dec 7.1 02:25:25 17° E 02:25:25 17° E 02:27:46 10° E visible
06 Dec 5.1 04:21:01 68° NW 04:21:56 70° NNW 04:35:21 10° ENE visible
06 Dec 6.2 06:17:37 10° W 06:28:52 41° NNW 06:41:46 10° NE visible
07 Dec 5.9 03:28:08 43° ENE 03:28:08 43° ENE 03:36:05 10° ENE visible
07 Dec 5.8 05:23:43 27° WNW 05:29:46 46° NNW 05:42:49 10° NE visible
08 Dec 7.1 02:35:10 15° ENE 02:35:10 15° ENE 02:36:43 10° ENE visible
08 Dec 5.4 04:30:45 53° NNW 04:31:00 53° NNW 04:43:42 10° NE visible
08 Dec 6.4 06:27:43 10° WNW 06:38:15 33° N 06:50:21 10° NE visible
09 Dec 6.1 03:37:43 35° NE 03:37:43 35° NE 03:44:30 10° ENE visible
09 Dec 6.0 05:33:18 23° WNW 05:39:07 36° NNW 05:51:12 10° NE visible
10 Dec 7.2 02:44:36 12° ENE 02:44:36 12° ENE 02:45:21 10° ENE visible
10 Dec 5.7 04:40:11 39° NNW 04:40:18 40° NNW 04:51:58 10° NE visible
11 Dec 6.3 03:47:00 28° NE 03:47:00 28° NE 03:52:47 10° NE visible
11 Dec 6.2 05:42:34 19° NW 05:48:41 29° N 05:59:45 10° NE visible
12 Dec 5.9 04:49:20 30° NNW 04:49:50 30° N 05:00:18 10° NE visible
13 Dec 6.5 03:56:02 23° NNE 03:56:02 23° NNE 04:01:00 10° NE visible
13 Dec 6.4 05:51:36 15° NW 05:58:24 26° N 06:08:39 10° NE visible
14 Dec 6.1 04:58:15 24° NNW 04:59:32 25° N 05:08:51 10° NE visible
14 Dec 6.1 21:45:31 10° SSW 21:45:47 11° SSW 21:45:47 11° SSW visible
15 Dec 6.5 04:04:53 20° NNE 04:04:53 20° NNE 04:09:19 10° NE visible
15 Dec 6.5 06:00:26 11° NW 06:08:10 24° N 06:18:01 10° NE visible
15 Dec 5.6 20:49:15 10° SSW 20:51:30 13° SSE 20:52:18 12° SSE visible
